Change the Weather History Date:

Monday, December 3, 2012

  Actual Average Record
Temperature  
Mean Temperature 72 °F 69 °F  
Max Temperature 83 °F 79 °F 88 °F (1978)
Min Temperature 61 °F 59 °F 38 °F (1910)
Degree Days  
Heating Degree Days 0 1  
Month to date heating degree days 0 3  
Since 1 July heating degree days 15 21  
Cooling Degree Days 7 5  
Month to date cooling degree days 19 15  
Year to date cooling degree days 4232 3878  
Growing Degree Days 22 (Base 50)    
Moisture  
Dew Point 56 °F    
Average Humidity 66    
Maximum Humidity 93    
Minimum Humidity 31    
Precipitation  
Precipitation 0.00 in 0.04 in 1.24 in (1905)
Month to date precipitation 0.00 0.13  
Year to date precipitation 47.43 54.35  
Sea Level Pressure  
Sea Level Pressure 30.21 in    
Wind  
Wind Speed 8 mph (ENE)    
Max Wind Speed 17 mph    
Max Gust Speed 23 mph    
Visibility 10 miles    
Events      
T = Trace of Precipitation, MM = Missing Value Source: NWS Daily Summary

Daily Weather History Graph

Daily Weather History Graph

Search for Another Location

Airport or City:

Trip Planner

Search our weather history database for the weather conditions in past years. The results will help you decide how hot, cold, wet, or windy it might be!

Date:

Astronomy

Dec. 03, 2012 Rise Set
Actual Time 7:00 AM EST 5:34 PM EST
Civil Twilight 6:35 AM EST 5:59 PM EST
Nautical Twilight 6:06 AM EST 6:28 PM EST
Astronomical Twilight 5:38 AM EST 6:56 PM EST
Moon 10:05 PM EST (12/3) 10:35 AM EST (12/3)
Length of Visible Light 11h 24m
Length of Day
10h 34m
Waning Gibbous, 78% of the Moon is Illuminated
Dec 3
Waning Gibbous
Dec 6
Last Quarter
Dec 13
New
Dec 20
First Quarter
Dec 28
Full

Hourly Weather History & Observations

Time (EST) Temp. Heat Index Dew Point Humidity Pressure Visibility Wind Dir Wind Speed Gust Speed Precip Events Conditions
12:53 AM 64.9 °F - 62.1 °F 90% 30.21 in 10.0 mi ENE 4.6 mph - N/A   Clear
1:53 AM 64.0 °F - 62.1 °F 93% 30.20 in 10.0 mi ENE 4.6 mph - N/A   Clear
2:53 AM 63.0 °F - 61.0 °F 93% 30.19 in 10.0 mi Calm Calm - N/A   Clear
3:53 AM 62.1 °F - 60.1 °F 93% 30.19 in 10.0 mi NE 3.5 mph - N/A   Clear
4:53 AM 62.1 °F - 61.0 °F 96% 30.20 in 10.0 mi NE 5.8 mph - N/A   Clear
5:53 AM 62.1 °F - 60.1 °F 93% 30.21 in 10.0 mi NE 5.8 mph - N/A   Clear
7:53 AM 64.9 °F - 62.1 °F 90% 30.24 in 10.0 mi ENE 5.8 mph - N/A   Clear
8:53 AM 69.1 °F - 63.0 °F 81% 30.25 in 10.0 mi East 8.1 mph - N/A   Clear
10:53 AM 78.1 °F - 57.9 °F 50% 30.25 in 10.0 mi East 13.8 mph 18.4 mph N/A   Clear
11:53 AM 80.1 °F 80.2 °F 55.9 °F 43% 30.23 in 10.0 mi East 12.7 mph - N/A   Scattered Clouds
12:53 PM 80.1 °F 80.1 °F 55.0 °F 42% 30.20 in 10.0 mi East 9.2 mph - N/A   Scattered Clouds
1:53 PM 82.0 °F 81.2 °F 53.1 °F 37% 30.17 in 10.0 mi ENE 11.5 mph 18.4 mph N/A   Partly Cloudy
2:53 PM 82.0 °F - 48.0 °F 30% 30.16 in 10.0 mi East 11.5 mph 19.6 mph N/A   Clear
3:53 PM 80.1 °F - 48.9 °F 34% 30.16 in 10.0 mi ENE 11.5 mph - N/A   Clear
4:53 PM 78.1 °F - 52.0 °F 40% 30.17 in 10.0 mi ENE 11.5 mph 19.6 mph N/A   Clear
5:53 PM 73.9 °F - 52.0 °F 46% 30.18 in 10.0 mi East 8.1 mph - N/A   Clear
6:53 PM 71.1 °F - 51.1 °F 49% 30.20 in 10.0 mi East 6.9 mph - N/A   Clear
7:53 PM 70.0 °F - 53.1 °F 55% 30.21 in 10.0 mi East 8.1 mph - N/A   Clear
8:53 PM 68.0 °F - 55.0 °F 63% 30.22 in 10.0 mi East 6.9 mph - N/A   Clear
9:53 PM 64.9 °F - 55.0 °F 70% 30.23 in 10.0 mi ENE 3.5 mph - N/A   Clear
10:53 PM 62.1 °F - 55.9 °F 80% 30.23 in 10.0 mi ENE 4.6 mph - N/A   Clear
11:53 PM 61.0 °F - 55.9 °F 83% 30.23 in 10.0 mi NE 6.9 mph - N/A   Partly Cloudy